Location: Chaumontel
(49.1247°N, 2.4324°E)
Time: 04:18:57
(UTC+00:00)

COSMOS 2428 - Pass Details

Date: 12 August 2024
Orbit: 842 x 857 km, 70.9° (Epoch: 08 September)

Event Time Altitude Azimuth Distance (km) Brightness Sun altitude
Exits shadow 01:47:36 44° 195° (SSW) 1,162 2.9 -21.4°
Maximum altitude 01:49:30 80° 116° (ESE) 867 2.7 -21.2°
Drops below altitude 10° 01:55:13 10° 30° (NNE) 2,490 6.3 -20.7°
Sets 01:57:41 0° 30° (NNE) 3,432 7.5 -20.5°
